contact:dominique.lefevre@mio.osupytheas.fr, maurice.libes@osupytheas.fr, didier.mallarino@osupytheas.fr
Project:EMSO http://www.emso-fr.org/EMSO-France
Depth: 2436.0 m
Title:EMSO Ligure Ouest : Data MII capteur AQUADOPP
Date,Latitude,Longitude,X_East,Y_North,Z_Up,Amplitude_X,Amplitude_Y,Amplitude_Z,Batterie,SoundSpeed,Heading,Pitch,Roll,Pressure,TIS,Speed,Direction
, degrees North, degrees East, m.s-1, m.s-1,m.s-1, 1, 1, 1, Volt, m.s-1, degree, degree, degree, dbar, degree_C, m.s-1, degree
2022-02-19T00:04:03,42.805,6.029,0.009,-0.002,-0.012,104.0,105.0,102.0,13.3,1505.2,326.0,-0.7,1.8,2470.762,13.28,0.009,102.5
2022-02-19T00:07:03,42.805,6.029,0.027,-0.009,-0.005,104.0,105.0,102.0,13.4,1505.2,326.5,-0.8,1.8,2470.77,13.28,0.028,108.4
2022-02-19T00:10:03,42.805,6.029,0.001,-0.009,-0.024,105.0,103.0,102.0,13.3,1505.2,328.6,-0.7,1.8,2470.738,13.28,0.009,173.7
2022-02-19T00:13:03,42.805,6.029,0.001,-0.009,-0.012,104.0,103.0,102.0,13.4,1505.2,326.0,-0.8,1.8,2470.773,13.28,0.009,173.7
2022-02-19T00:16:03,42.805,6.029,0.016,-0.034,-0.055,106.0,104.0,102.0,13.4,1505.2,331.3,-0.8,1.8,2470.733,13.28,0.037,154.8
2022-02-19T00:19:03,42.805,6.029,0.012,-0.02,0.006,104.0,104.0,102.0,13.3,1505.2,327.5,-0.8,1.8,2470.713,13.28,0.023,149.0
2022-02-19T00:22:03,42.805,6.029,0.02,-0.006,-0.018,104.0,104.0,103.0,13.4,1505.2,326.2,-0.8,1.8,2470.721,13.28,0.02,106.7
2022-02-19T00:25:03,42.805,6.029,0.005,0.001,-0.006,103.0,104.0,102.0,13.4,1505.2,327.4,-0.7,1.8,2470.728,13.28,0.005,78.7
2022-02-19T00:28:03,42.805,6.029,0.037,-0.022,-0.023,104.0,104.0,103.0,13.4,1505.2,329.8,-0.7,1.8,2470.675,13.28,0.043,120.7
2022-02-19T00:31:03,42.805,6.029,0.017,0.0,-0.028,103.0,104.0,102.0,13.3,1505.2,326.9,-0.7,1.8,2470.684,13.28,0.017,90.0
2022-02-19T00:34:03,42.805,6.029,0.001,-0.015,-0.025,104.0,104.0,102.0,13.4,1505.2,330.0,-0.8,1.8,2470.712,13.28,0.015,176.2
2022-02-19T00:37:03,42.805,6.029,0.035,-0.018,-0.018,105.0,105.0,102.0,13.4,1505.2,328.2,-0.7,1.8,2470.689,13.28,0.039,117.2
2022-02-19T00:40:03,42.805,6.029,0.011,-0.006,-0.027,105.0,103.0,103.0,13.4,1505.2,328.7,-0.8,1.8,2470.718,13.28,0.012,118.6
2022-02-19T00:43:03,42.805,6.029,0.011,-0.01,-0.02,103.0,105.0,103.0,13.4,1505.2,329.2,-0.7,1.8,2470.691,13.28,0.014,132.3
2022-02-19T00:46:03,42.805,6.029,0.034,-0.016,0.003,104.0,105.0,102.0,13.4,1505.2,327.8,-0.8,1.8,2470.698,13.28,0.037,115.2
2022-02-19T00:49:03,42.805,6.029,0.007,-0.006,-0.013,103.0,105.0,103.0,13.3,1505.2,328.5,-0.8,1.8,2470.697,13.28,0.009,130.6
2022-02-19T00:52:03,42.805,6.029,0.015,0.001,0.005,106.0,104.0,103.0,13.4,1505.2,327.6,-0.7,1.8,2470.689,13.28,0.015,86.2
2022-02-19T00:55:03,42.805,6.029,0.017,-0.025,-0.022,105.0,105.0,102.0,13.4,1505.2,328.5,-0.8,1.8,2470.715,13.28,0.03,145.8
2022-02-19T00:58:03,42.805,6.029,0.015,0.003,0.011,104.0,106.0,102.0,13.3,1505.2,325.4,-0.8,1.8,2470.706,13.29,0.015,78.7
2022-02-19T01:04:03,42.805,6.029,0.015,-0.008,0.005,107.0,108.0,104.0,13.3,1505.2,326.7,-0.8,1.8,2470.746,13.28,0.017,118.1
2022-02-19T01:07:03,42.805,6.029,0.031,-0.028,0.013,105.0,105.0,102.0,13.4,1505.2,327.3,-0.8,1.8,2470.673,13.28,0.041,132.1
2022-02-19T01:10:03,42.805,6.029,0.025,-0.017,-0.046,104.0,105.0,103.0,13.4,1505.2,327.4,-0.8,1.8,2470.69,13.28,0.03,124.2
2022-02-19T01:13:03,42.805,6.029,0.01,-0.004,-0.023,104.0,104.0,103.0,13.4,1505.2,327.9,-0.8,1.8,2470.681,13.28,0.01,111.8
2022-02-19T01:16:03,42.805,6.029,0.0,-0.01,-0.001,105.0,104.0,102.0,13.4,1505.2,323.9,-0.7,1.8,2470.702,13.28,0.01,180.0
2022-02-19T01:19:03,42.805,6.029,0.025,0.003,-0.007,106.0,104.0,102.0,13.3,1505.2,328.9,-0.8,1.8,2470.696,13.28,0.025,83.2
2022-02-19T01:22:03,42.805,6.029,0.038,0.014,0.0,106.0,105.0,102.0,13.3,1505.2,329.8,-0.8,1.8,2470.68,13.28,0.04,69.8
2022-02-19T01:25:03,42.805,6.029,0.02,0.005,0.001,105.0,104.0,102.0,13.4,1505.2,326.3,-0.7,1.8,2470.706,13.28,0.02,76.0
2022-02-19T01:28:03,42.805,6.029,0.024,-0.011,0.012,105.0,103.0,103.0,13.4,1505.2,331.1,-0.7,1.8,2470.64,13.28,0.026,114.6
2022-02-19T01:31:03,42.805,6.029,0.021,0.001,-0.001,104.0,103.0,102.0,13.3,1505.2,326.4,-0.7,1.8,2470.686,13.28,0.021,87.3
2022-02-19T01:34:03,42.805,6.029,-0.001,-0.004,0.0,104.0,104.0,102.0,13.4,1505.2,329.1,-0.8,1.8,2470.647,13.28,0.004,194.0
2022-02-19T01:37:03,42.805,6.029,0.016,-0.005,0.002,105.0,105.0,103.0,13.4,1505.2,324.7,-0.8,1.8,2470.652,13.28,0.016,107.4
2022-02-19T01:40:03,42.805,6.029,0.0,0.0,0.008,105.0,104.0,102.0,13.4,1505.2,324.3,-0.7,1.8,2470.656,13.28,0.0,0.0
2022-02-19T01:43:03,42.805,6.029,0.008,-0.014,-0.003,105.0,104.0,102.0,13.4,1505.2,327.6,-0.8,1.8,2470.63,13.28,0.016,150.3
2022-02-19T01:46:03,42.805,6.029,0.008,-0.018,-0.012,105.0,104.0,102.0,13.3,1505.2,331.0,-0.7,1.8,2470.653,13.28,0.019,156.0
2022-02-19T01:49:03,42.805,6.029,0.009,-0.023,-0.024,106.0,104.0,103.0,13.4,1505.2,329.3,-0.7,1.8,2470.642,13.28,0.024,158.6
2022-02-19T01:52:03,42.805,6.029,-0.003,-0.016,-0.028,103.0,106.0,103.0,13.3,1505.2,329.4,-0.8,1.8,2470.686,13.28,0.016,190.6
2022-02-19T01:55:03,42.805,6.029,0.011,-0.026,-0.016,104.0,105.0,102.0,13.4,1505.2,327.8,-0.8,1.8,2470.675,13.28,0.028,157.1
2022-02-19T01:58:03,42.805,6.029,0.029,0.002,0.024,105.0,104.0,103.0,13.4,1505.2,329.8,-0.7,1.8,2470.668,13.28,0.029,86.1
2022-02-19T02:04:03,42.805,6.029,0.045,-0.014,-0.003,105.0,104.0,103.0,13.4,1505.2,330.8,-0.7,1.8,2470.692,13.28,0.047,107.3
2022-02-19T02:07:03,42.805,6.029,0.017,-0.014,-0.038,105.0,104.0,102.0,13.4,1505.2,323.8,-0.8,1.8,2470.676,13.28,0.022,129.5
2022-02-19T02:10:03,42.805,6.029,0.032,-0.032,-0.007,105.0,105.0,103.0,13.4,1505.2,331.4,-0.7,1.8,2470.661,13.28,0.045,135.0
2022-02-19T02:13:03,42.805,6.029,0.033,-0.017,-0.02,105.0,105.0,102.0,13.4,1505.2,326.4,-0.8,1.8,2470.677,13.28,0.037,117.3
2022-02-19T02:16:03,42.805,6.029,0.038,-0.009,0.006,106.0,103.0,102.0,13.4,1505.2,327.6,-0.8,1.8,2470.664,13.28,0.039,103.3
2022-02-19T02:19:03,42.805,6.029,0.026,-0.03,-0.012,104.0,104.0,101.0,13.4,1505.2,326.3,-0.8,1.8,2470.604,13.28,0.039,139.1
2022-02-19T02:22:03,42.805,6.029,0.003,-0.028,-0.018,106.0,104.0,102.0,13.4,1505.2,328.9,-0.8,1.8,2470.627,13.28,0.028,173.9
2022-02-19T02:25:03,42.805,6.029,-0.002,-0.013,-0.013,106.0,105.0,101.0,13.4,1505.2,325.2,-0.7,1.8,2470.67,13.28,0.013,188.7
2022-02-19T02:28:03,42.805,6.029,0.011,-0.013,0.015,105.0,103.0,101.0,13.4,1505.2,328.1,-0.8,1.8,2470.619,13.28,0.017,139.8
2022-02-19T02:31:03,42.805,6.029,0.0,0.016,0.003,105.0,104.0,102.0,13.4,1505.2,328.6,-0.7,1.8,2470.63,13.28,0.016,0.0
2022-02-19T02:34:03,42.805,6.029,0.017,-0.004,0.006,105.0,104.0,102.0,13.4,1505.2,326.2,-0.8,1.8,2470.659,13.28,0.017,103.2
2022-02-19T02:37:03,42.805,6.029,0.023,0.0,0.008,105.0,104.0,103.0,13.4,1505.2,325.8,-0.8,1.8,2470.656,13.28,0.023,90.0
2022-02-19T02:40:03,42.805,6.029,-0.017,0.003,-0.014,104.0,103.0,103.0,13.4,1505.2,330.7,-0.8,1.8,2470.641,13.28,0.017,280.0
2022-02-19T02:43:03,42.805,6.029,0.019,-0.028,-0.024,103.0,105.0,103.0,13.4,1505.2,326.5,-0.8,1.8,2470.665,13.28,0.033,145.8
2022-02-19T02:46:03,42.805,6.029,-0.004,-0.016,-0.009,103.0,104.0,102.0,13.4,1505.2,323.5,-0.8,1.8,2470.646,13.28,0.016,194.0
2022-02-19T02:49:03,42.805,6.029,0.0,-0.019,-0.024,104.0,104.0,103.0,13.4,1505.2,323.1,-0.8,1.8,2470.657,13.28,0.019,180.0
2022-02-19T02:52:03,42.805,6.029,0.021,-0.016,0.0,104.0,105.0,102.0,13.3,1505.2,331.4,-0.8,1.8,2470.684,13.29,0.026,127.3
2022-02-19T02:55:03,42.805,6.029,0.03,-0.029,0.0,105.0,104.0,102.0,13.4,1505.2,328.2,-0.7,1.8,2470.66,13.28,0.041,134.0
2022-02-19T02:58:03,42.805,6.029,0.0,-0.013,-0.022,105.0,105.0,102.0,13.4,1505.2,323.5,-0.7,1.8,2470.669,13.28,0.013,180.0
2022-02-19T03:04:03,42.805,6.029,0.0,0.001,0.017,104.0,104.0,102.0,13.3,1505.2,327.9,-0.7,1.8,2470.684,13.28,0.001,0.0
2022-02-19T03:07:03,42.805,6.029,0.019,-0.014,-0.002,105.0,104.0,103.0,13.4,1505.2,326.3,-0.8,1.8,2470.686,13.28,0.023,126.4
2022-02-19T03:10:03,42.805,6.029,-0.001,-0.007,-0.022,105.0,103.0,102.0,13.4,1505.2,323.9,-0.7,1.8,2470.639,13.28,0.007,188.1
2022-02-19T03:13:03,42.805,6.029,0.014,-0.021,-0.016,104.0,105.0,102.0,13.3,1505.2,323.0,-0.7,1.8,2470.693,13.28,0.025,146.3
2022-02-19T03:16:03,42.805,6.029,0.01,-0.012,0.005,104.0,104.0,103.0,13.4,1505.2,328.5,-0.8,1.8,2470.686,13.28,0.015,140.2
2022-02-19T03:19:03,42.805,6.029,0.035,-0.014,-0.019,105.0,103.0,103.0,13.3,1505.2,325.1,-0.7,1.8,2470.656,13.28,0.037,111.8
2022-02-19T03:22:03,42.805,6.029,0.01,-0.002,0.01,104.0,107.0,102.0,13.4,1505.2,329.7,-0.8,1.8,2470.652,13.28,0.01,101.3
2022-02-19T03:25:03,42.805,6.029,0.035,-0.002,0.01,104.0,104.0,102.0,13.4,1505.2,331.3,-0.8,1.8,2470.669,13.28,0.035,93.3
2022-02-19T03:28:03,42.805,6.029,0.011,-0.027,0.013,105.0,104.0,103.0,13.4,1505.2,327.3,-0.8,1.8,2470.678,13.28,0.029,157.8
2022-02-19T03:31:03,42.805,6.029,0.026,-0.007,-0.004,105.0,104.0,103.0,13.4,1505.2,323.3,-0.8,1.8,2470.669,13.28,0.026,105.1
2022-02-19T03:34:03,42.805,6.029,0.014,-0.03,-0.027,105.0,104.0,102.0,13.4,1505.2,329.3,-0.7,1.8,2470.666,13.28,0.033,155.0
2022-02-19T03:37:03,42.805,6.029,0.0,-0.006,0.001,106.0,105.0,102.0,13.4,1505.2,328.6,-0.7,1.8,2470.665,13.28,0.006,180.0
2022-02-19T03:40:03,42.805,6.029,0.019,0.0,-0.015,104.0,105.0,103.0,13.4,1505.2,326.7,-0.7,1.8,2470.682,13.28,0.019,90.0
2022-02-19T03:43:03,42.805,6.029,0.017,-0.025,0.005,105.0,104.0,102.0,13.4,1505.2,323.9,-0.7,1.8,2470.665,13.28,0.03,145.8
2022-02-19T03:46:03,42.805,6.029,0.02,-0.021,0.001,105.0,104.0,103.0,13.4,1505.2,325.3,-0.8,1.8,2470.649,13.28,0.028,136.4
2022-02-19T03:49:03,42.805,6.029,0.0,-0.011,-0.024,105.0,104.0,103.0,13.4,1505.2,329.7,-0.7,1.8,2470.648,13.28,0.011,180.0
2022-02-19T03:52:03,42.805,6.029,0.011,-0.012,-0.015,105.0,107.0,102.0,13.4,1505.2,328.3,-0.8,1.8,2470.677,13.28,0.016,137.5
2022-02-19T03:55:03,42.805,6.029,0.014,0.002,-0.013,104.0,105.0,103.0,13.4,1505.2,324.3,-0.7,1.8,2470.634,13.28,0.014,81.9
2022-02-19T03:58:03,42.805,6.029,0.016,-0.02,0.004,105.0,105.0,103.0,13.4,1505.2,329.8,-0.8,1.8,2470.649,13.29,0.025,141.3
2022-02-19T04:04:03,42.805,6.029,0.032,-0.02,-0.031,105.0,103.0,103.0,13.4,1505.2,329.7,-0.8,1.8,2470.646,13.28,0.037,122.0
2022-02-19T04:07:03,42.805,6.029,0.008,0.01,0.012,105.0,106.0,102.0,13.4,1505.2,324.3,-0.8,1.8,2470.688,13.28,0.012,38.7
2022-02-19T04:10:03,42.805,6.029,0.021,-0.015,-0.005,105.0,103.0,103.0,13.4,1505.2,331.6,-0.8,1.8,2470.689,13.28,0.025,125.5
2022-02-19T04:13:03,42.805,6.029,-0.004,0.001,-0.023,103.0,106.0,103.0,13.4,1505.2,327.9,-0.8,1.8,2470.703,13.28,0.004,284.0
2022-02-19T04:16:03,42.805,6.029,0.013,-0.02,-0.001,103.0,102.0,103.0,13.3,1505.2,327.8,-0.7,1.8,2470.671,13.28,0.023,147.0
2022-02-19T04:19:03,42.805,6.029,0.021,-0.027,0.028,103.0,104.0,102.0,13.4,1505.2,331.9,-0.8,1.8,2470.665,13.28,0.034,142.1
2022-02-19T04:22:03,42.805,6.029,-0.001,-0.014,-0.031,104.0,105.0,102.0,13.3,1505.2,329.5,-0.8,1.8,2470.698,13.28,0.014,184.1
2022-02-19T04:25:03,42.805,6.029,-0.006,-0.019,0.003,104.0,104.0,103.0,13.3,1505.2,326.6,-0.8,1.8,2470.687,13.28,0.019,197.5
2022-02-19T04:28:03,42.805,6.029,-0.007,-0.011,-0.014,104.0,104.0,102.0,13.3,1505.2,325.4,-0.7,1.8,2470.664,13.28,0.013,212.5
2022-02-19T04:31:03,42.805,6.029,-0.005,-0.019,-0.023,104.0,104.0,102.0,13.4,1505.2,328.2,-0.7,1.8,2470.696,13.29,0.019,194.7
2022-02-19T04:34:03,42.805,6.029,0.007,-0.019,-0.014,105.0,104.0,101.0,13.4,1505.2,329.1,-0.8,1.8,2470.708,13.28,0.02,159.8
2022-02-19T04:37:03,42.805,6.029,0.006,-0.021,-0.021,103.0,104.0,100.0,13.4,1505.2,323.8,-0.7,1.8,2470.667,13.29,0.021,164.1
2022-02-19T04:40:03,42.805,6.029,0.005,-0.01,-0.048,104.0,104.0,102.0,13.4,1505.2,327.0,-0.8,1.8,2470.653,13.28,0.011,153.4
2022-02-19T04:43:03,42.805,6.029,0.004,-0.024,-0.007,103.0,105.0,102.0,13.4,1505.2,327.1,-0.8,1.8,2470.658,13.29,0.024,170.5
2022-02-19T04:46:03,42.805,6.029,-0.003,-0.031,0.012,104.0,104.0,102.0,13.4,1505.2,327.5,-0.8,1.8,2470.663,13.29,0.031,185.5
2022-02-19T04:49:03,42.805,6.029,0.024,-0.005,-0.005,104.0,102.0,103.0,13.3,1505.2,323.5,-0.8,1.8,2470.668,13.29,0.024,101.8
2022-02-19T04:52:03,42.805,6.029,0.009,0.01,0.046,103.0,104.0,103.0,13.4,1505.2,330.5,-0.8,1.8,2470.7,13.29,0.013,42.0
2022-02-19T04:55:03,42.805,6.029,-0.022,-0.021,-0.019,105.0,103.0,101.0,13.4,1505.2,330.0,-0.7,1.8,2470.723,13.28,0.03,226.3
2022-02-19T04:58:03,42.805,6.029,-0.023,-0.017,-0.021,104.0,103.0,101.0,13.3,1505.2,331.1,-0.8,1.9,2470.7,13.29,0.028,233.5
2022-02-19T05:04:03,42.805,6.029,0.008,-0.018,-0.013,103.0,103.0,102.0,13.4,1505.2,327.2,-0.7,1.9,2470.723,13.28,0.019,156.0
2022-02-19T05:07:03,42.805,6.029,0.024,-0.01,-0.017,105.0,104.0,102.0,13.3,1505.2,326.3,-0.8,1.8,2470.726,13.28,0.026,112.6
2022-02-19T05:10:03,42.805,6.029,0.005,0.0,-0.012,107.0,105.0,103.0,13.4,1505.2,326.3,-0.7,1.8,2470.755,13.28,0.005,90.0
2022-02-19T05:13:03,42.805,6.029,-0.004,0.0,0.009,105.0,105.0,102.0,13.3,1505.2,327.4,-0.7,1.8,2470.733,13.28,0.004,270.0
2022-02-19T05:16:03,42.805,6.029,-0.003,-0.019,-0.026,104.0,104.0,102.0,13.3,1505.2,328.2,-0.7,1.8,2470.753,13.28,0.019,189.0
2022-02-19T05:19:03,42.805,6.029,0.005,-0.01,-0.026,103.0,105.0,102.0,13.4,1505.2,328.8,-0.7,1.8,2470.691,13.28,0.011,153.4
2022-02-19T05:22:03,42.805,6.029,-0.012,-0.011,-0.002,104.0,104.0,102.0,13.4,1505.2,329.4,-0.8,1.8,2470.744,13.28,0.016,227.5
2022-02-19T05:25:03,42.805,6.029,0.007,-0.002,0.006,104.0,105.0,102.0,13.3,1505.2,327.7,-0.7,1.8,2470.816,13.29,0.007,105.9
2022-02-19T05:28:03,42.805,6.029,0.004,-0.015,0.006,105.0,104.0,102.0,13.3,1505.2,327.4,-0.8,1.8,2470.758,13.29,0.015,165.1
2022-02-19T05:31:03,42.805,6.029,-0.006,-0.006,0.005,105.0,104.0,101.0,13.4,1505.2,325.6,-0.8,1.8,2470.708,13.29,0.008,225.0
2022-02-19T05:34:03,42.805,6.029,-0.003,0.001,0.017,103.0,102.0,102.0,13.3,1505.2,326.1,-0.8,1.8,2470.724,13.29,0.003,288.4
2022-02-19T05:37:03,42.805,6.029,0.024,-0.008,-0.003,104.0,104.0,101.0,13.4,1505.2,326.3,-0.8,1.8,2470.737,13.29,0.025,108.4
2022-02-19T05:40:03,42.805,6.029,0.0,-0.024,-0.009,103.0,104.0,102.0,13.3,1505.2,329.0,-0.8,1.8,2470.744,13.29,0.024,180.0
2022-02-19T05:43:03,42.805,6.029,-0.012,-0.005,-0.019,103.0,102.0,102.0,13.3,1505.2,325.8,-0.8,1.8,2470.751,13.29,0.013,247.4
2022-02-19T05:46:03,42.805,6.029,-0.01,-0.019,-0.018,102.0,104.0,103.0,13.4,1505.2,331.8,-0.8,1.8,2470.801,13.29,0.021,207.8
2022-02-19T05:49:03,42.805,6.029,-0.014,0.0,0.004,104.0,104.0,103.0,13.3,1505.2,328.6,-0.8,1.8,2470.726,13.29,0.014,270.0
2022-02-19T05:52:03,42.805,6.029,-0.008,-0.005,-0.02,104.0,103.0,102.0,13.3,1505.2,329.3,-0.8,1.9,2470.79,13.29,0.009,238.0
2022-02-19T05:55:03,42.805,6.029,0.002,-0.013,-0.011,104.0,103.0,101.0,13.3,1505.2,330.4,-0.7,1.9,2470.784,13.29,0.013,171.3
2022-02-19T05:58:03,42.805,6.029,0.026,-0.025,-0.001,104.0,105.0,101.0,13.4,1505.2,325.7,-0.8,1.8,2470.748,13.29,0.036,133.9
2022-02-19T06:04:03,42.805,6.029,0.006,-0.008,0.005,103.0,104.0,102.0,13.4,1505.2,323.7,-0.8,1.8,2470.81,13.28,0.01,143.1
2022-02-19T06:07:03,42.805,6.029,-0.01,0.01,0.001,105.0,104.0,103.0,13.4,1505.2,329.6,-0.8,1.8,2470.806,13.28,0.014,315.0
2022-02-19T06:10:03,42.805,6.029,-0.017,-0.006,-0.026,106.0,103.0,103.0,13.4,1505.2,329.9,-0.8,1.8,2470.778,13.28,0.018,250.6
2022-02-19T06:13:03,42.805,6.029,-0.003,-0.022,-0.008,106.0,103.0,102.0,13.4,1505.2,329.4,-0.7,1.8,2470.744,13.28,0.022,187.8
2022-02-19T06:16:03,42.805,6.029,0.015,-0.009,-0.019,104.0,106.0,102.0,13.3,1505.2,323.0,-0.8,1.8,2470.803,13.29,0.017,121.0
2022-02-19T06:19:03,42.805,6.029,-0.011,-0.005,0.004,104.0,104.0,102.0,13.4,1505.2,330.9,-0.8,1.8,2470.816,13.29,0.012,245.6
2022-02-19T06:22:03,42.805,6.029,0.002,-0.017,-0.009,104.0,104.0,103.0,13.4,1505.2,330.0,-0.7,1.8,2470.81,13.29,0.017,173.3
2022-02-19T06:25:03,42.805,6.029,-0.018,-0.006,0.005,103.0,107.0,102.0,13.4,1505.2,329.2,-0.7,1.8,2470.811,13.29,0.018,251.6
2022-02-19T06:28:03,42.805,6.029,-0.003,-0.013,-0.01,105.0,103.0,102.0,13.4,1505.2,326.4,-0.7,1.9,2470.811,13.29,0.013,193.0
2022-02-19T06:31:03,42.805,6.029,-0.001,0.001,-0.004,105.0,104.0,103.0,13.4,1505.2,325.8,-0.8,1.8,2470.816,13.29,0.001,315.0
2022-02-19T06:34:03,42.805,6.029,0.01,0.0,0.018,104.0,104.0,101.0,13.3,1505.2,327.0,-0.8,1.8,2470.788,13.29,0.01,90.0
2022-02-19T06:37:03,42.805,6.029,-0.019,-0.03,-0.026,104.0,104.0,101.0,13.4,1505.2,327.9,-0.7,1.8,2470.876,13.29,0.035,212.3
2022-02-19T06:40:03,42.805,6.029,0.005,-0.02,0.007,103.0,104.0,102.0,13.3,1505.2,324.6,-0.8,1.8,2470.807,13.29,0.02,166.0
2022-02-19T06:43:03,42.805,6.029,0.002,-0.007,0.002,104.0,103.0,102.0,13.4,1505.2,331.6,-0.7,1.8,2470.821,13.29,0.007,164.1
2022-02-19T06:46:03,42.805,6.029,-0.019,-0.016,0.006,103.0,105.0,102.0,13.3,1505.2,328.5,-0.7,1.8,2470.83,13.29,0.024,229.9
2022-02-19T06:49:03,42.805,6.029,-0.014,-0.008,-0.031,104.0,105.0,102.0,13.4,1505.2,329.7,-0.7,1.8,2470.822,13.29,0.016,240.3
2022-02-19T06:52:03,42.805,6.029,-0.005,0.0,-0.011,104.0,104.0,103.0,13.4,1505.2,327.8,-0.8,1.9,2470.83,13.29,0.005,270.0
2022-02-19T06:55:03,42.805,6.029,0.006,-0.017,0.014,106.0,103.0,103.0,13.3,1505.2,326.4,-0.8,1.8,2470.795,13.29,0.018,160.6
2022-02-19T06:58:03,42.805,6.029,-0.003,-0.004,-0.018,104.0,104.0,103.0,13.4,1505.2,326.2,-0.7,1.8,2470.838,13.29,0.005,216.9
2022-02-19T07:04:03,42.805,6.029,0.005,0.008,-0.026,103.0,103.0,102.0,13.3,1505.2,327.0,-0.8,1.8,2470.915,13.28,0.009,32.0
2022-02-19T07:07:03,42.805,6.029,-0.004,-0.009,-0.011,104.0,104.0,103.0,13.3,1505.2,328.6,-0.7,1.8,2470.89,13.28,0.009,204.0
2022-02-19T07:10:03,42.805,6.029,-0.004,-0.01,-0.05,106.0,104.0,101.0,13.3,1505.2,328.1,-0.7,1.8,2470.914,13.29,0.01,201.8
2022-02-19T07:13:03,42.805,6.029,-0.03,-0.014,0.0,105.0,103.0,103.0,13.3,1505.2,325.2,-0.7,1.8,2470.87,13.29,0.033,245.0
2022-02-19T07:16:03,42.805,6.029,-0.013,-0.02,-0.015,105.0,104.0,103.0,13.4,1505.2,326.7,-0.7,1.8,2470.908,13.29,0.023,213.0
2022-02-19T07:19:03,42.805,6.029,-0.013,-0.018,-0.006,104.0,103.0,102.0,13.3,1505.2,331.6,-0.8,1.8,2470.909,13.29,0.022,215.8
2022-02-19T07:22:03,42.805,6.029,-0.012,-0.009,-0.02,104.0,103.0,101.0,13.3,1505.2,325.4,-0.7,1.8,2470.887,13.29,0.015,233.1
2022-02-19T07:25:03,42.805,6.029,0.007,-0.016,-0.007,104.0,103.0,102.0,13.4,1505.2,325.0,-0.8,1.8,2470.874,13.29,0.017,156.4
2022-02-19T07:28:03,42.805,6.029,0.0,-0.005,-0.015,103.0,105.0,101.0,13.4,1505.2,328.0,-0.8,1.8,2470.925,13.29,0.005,180.0
2022-02-19T07:31:03,42.805,6.029,-0.025,0.0,-0.013,105.0,103.0,102.0,13.3,1505.2,331.0,-0.8,1.8,2470.926,13.29,0.025,270.0
2022-02-19T07:34:03,42.805,6.029,0.006,-0.004,-0.009,104.0,103.0,101.0,13.3,1505.2,325.8,-0.7,1.8,2470.884,13.29,0.007,123.7
2022-02-19T07:37:03,42.805,6.029,-0.004,-0.021,-0.015,103.0,103.0,102.0,13.4,1505.2,332.2,-0.7,1.8,2470.909,13.29,0.021,190.8
2022-02-19T07:40:03,42.805,6.029,0.019,-0.001,0.004,103.0,104.0,102.0,13.4,1505.2,329.1,-0.8,1.8,2470.912,13.29,0.019,93.0
2022-02-19T07:43:03,42.805,6.029,-0.028,-0.009,-0.015,104.0,104.0,103.0,13.3,1505.2,327.9,-0.7,1.8,2470.895,13.29,0.029,252.2
2022-02-19T07:46:03,42.805,6.029,-0.019,-0.009,-0.025,104.0,104.0,102.0,13.4,1505.2,327.4,-0.8,1.8,2470.961,13.29,0.021,244.7
2022-02-19T07:49:03,42.805,6.029,0.01,-0.023,-0.05,105.0,103.0,103.0,13.4,1505.2,323.1,-0.8,1.8,2470.94,13.29,0.025,156.5
2022-02-19T07:52:03,42.805,6.029,0.002,-0.01,-0.018,106.0,105.0,103.0,13.4,1505.2,324.2,-0.8,1.9,2470.909,13.29,0.01,168.7
2022-02-19T07:55:03,42.805,6.029,0.011,-0.042,-0.039,104.0,105.0,104.0,13.4,1505.2,326.2,-0.7,1.8,2470.913,13.29,0.043,165.3
2022-02-19T07:58:03,42.805,6.029,-0.02,-0.023,-0.03,106.0,103.0,101.0,13.4,1505.2,329.7,-0.8,1.8,2470.899,13.29,0.03,221.0
2022-02-19T08:04:03,42.805,6.029,-0.003,-0.015,0.002,104.0,105.0,104.0,13.4,1505.2,329.8,-0.7,1.8,2470.936,13.28,0.015,191.3
2022-02-19T08:07:03,42.805,6.029,-0.017,-0.016,-0.042,104.0,105.0,102.0,13.3,1505.2,325.7,-0.7,1.8,2470.966,13.29,0.023,226.7
2022-02-19T08:10:03,42.805,6.029,0.001,-0.006,-0.024,105.0,103.0,104.0,13.4,1505.2,325.1,-0.7,1.8,2470.927,13.29,0.006,170.5
2022-02-19T08:13:03,42.805,6.029,-0.011,-0.013,0.006,105.0,105.0,102.0,13.4,1505.2,324.1,-0.8,1.8,2470.96,13.29,0.017,220.2
2022-02-19T08:16:03,42.805,6.029,-0.017,-0.019,-0.023,103.0,101.0,102.0,13.4,1505.2,328.0,-0.8,1.8,2470.943,13.29,0.025,221.8
2022-02-19T08:19:03,42.805,6.029,-0.009,-0.021,-0.005,103.0,107.0,102.0,13.4,1505.2,328.4,-0.8,1.8,2470.904,13.29,0.022,203.2
2022-02-19T08:22:03,42.805,6.029,0.0,-0.011,0.015,105.0,104.0,102.0,13.3,1505.2,328.4,-0.7,1.8,2470.951,13.29,0.011,180.0
2022-02-19T08:25:03,42.805,6.029,-0.003,0.01,-0.015,104.0,105.0,103.0,13.4,1505.2,326.9,-0.8,1.9,2470.972,13.29,0.01,343.3
2022-02-19T08:28:03,42.805,6.029,0.001,-0.005,-0.001,103.0,104.0,103.0,13.4,1505.2,328.4,-0.8,1.8,2470.934,13.29,0.005,168.7
2022-02-19T08:31:03,42.805,6.029,-0.033,-0.004,-0.027,105.0,104.0,102.0,13.3,1505.2,325.8,-0.8,1.8,2470.906,13.29,0.033,263.1
2022-02-19T08:34:03,42.805,6.029,-0.013,0.01,-0.011,104.0,104.0,103.0,13.4,1505.2,324.3,-0.7,1.8,2470.915,13.29,0.016,307.6
2022-02-19T08:37:03,42.805,6.029,-0.002,-0.004,-0.007,103.0,102.0,102.0,13.4,1505.2,328.8,-0.8,1.8,2470.924,13.29,0.004,206.6
2022-02-19T08:40:03,42.805,6.029,-0.003,-0.008,0.015,103.0,103.0,102.0,13.4,1505.2,329.0,-0.8,1.8,2470.93,13.29,0.008,200.6
2022-02-19T08:43:03,42.805,6.029,-0.007,-0.009,-0.018,104.0,102.0,102.0,13.3,1505.2,326.7,-0.8,1.8,2470.928,13.29,0.011,217.9
2022-02-19T08:46:03,42.805,6.029,-0.025,-0.007,0.006,101.0,105.0,102.0,13.4,1505.2,329.7,-0.7,1.8,2470.928,13.29,0.025,254.4
2022-02-19T08:49:03,42.805,6.029,0.002,-0.007,-0.028,104.0,104.0,103.0,13.4,1505.2,328.9,-0.8,1.8,2470.936,13.29,0.007,164.1
2022-02-19T08:52:03,42.805,6.029,0.007,-0.015,-0.005,104.0,105.0,102.0,13.4,1505.2,323.7,-0.7,1.8,2470.964,13.29,0.016,155.0
2022-02-19T08:55:03,42.805,6.029,0.01,0.0,0.001,103.0,105.0,102.0,13.3,1505.2,329.0,-0.8,1.8,2470.952,13.29,0.01,90.0
2022-02-19T08:58:03,42.805,6.029,-0.018,0.005,-0.011,103.0,105.0,102.0,13.4,1505.2,325.1,-0.8,1.9,2470.96,13.29,0.018,285.5
2022-02-19T09:04:03,42.805,6.029,0.008,0.001,0.003,103.0,104.0,103.0,13.4,1505.2,326.9,-0.7,1.8,2470.977,13.29,0.008,82.9
2022-02-19T09:07:03,42.805,6.029,-0.005,0.003,-0.014,105.0,108.0,102.0,13.4,1505.2,326.2,-0.7,1.8,2470.971,13.29,0.005,301.0
2022-02-19T09:10:03,42.805,6.029,-0.013,0.002,-0.029,104.0,104.0,102.0,13.4,1505.2,325.9,-0.7,1.8,2470.97,13.29,0.013,278.7
2022-02-19T09:13:03,42.805,6.029,0.014,-0.014,-0.006,104.0,104.0,102.0,13.4,1505.2,329.0,-0.8,1.8,2470.929,13.29,0.019,135.0
2022-02-19T09:16:03,42.805,6.029,0.003,0.0,-0.009,102.0,105.0,102.0,13.3,1505.2,323.0,-0.8,1.8,2470.929,13.29,0.003,90.0
2022-02-19T09:19:03,42.805,6.029,0.006,-0.004,-0.026,104.0,103.0,102.0,13.3,1505.2,329.3,-0.8,1.8,2470.943,13.29,0.007,123.7
2022-02-19T09:22:03,42.805,6.029,-0.031,-0.003,-0.016,103.0,104.0,103.0,13.3,1505.2,326.0,-0.8,1.8,2470.972,13.29,0.031,264.5
2022-02-19T09:25:03,42.805,6.029,-0.002,-0.001,-0.009,105.0,104.0,102.0,13.4,1505.2,331.5,-0.8,1.8,2470.92,13.29,0.002,243.4
2022-02-19T09:28:03,42.805,6.029,0.006,-0.008,-0.015,105.0,106.0,102.0,13.4,1505.2,323.8,-0.7,1.8,2470.932,13.29,0.01,143.1
2022-02-19T09:31:03,42.805,6.029,-0.004,-0.002,-0.017,104.0,104.0,103.0,13.4,1505.2,327.1,-0.7,1.8,2470.946,13.29,0.004,243.4
2022-02-19T09:34:03,42.805,6.029,-0.01,-0.011,-0.024,105.0,104.0,103.0,13.3,1505.2,328.8,-0.8,1.9,2470.923,13.29,0.014,222.3
2022-02-19T09:37:03,42.805,6.029,-0.016,0.0,-0.022,106.0,104.0,102.0,13.4,1505.2,331.5,-0.7,1.8,2470.964,13.29,0.016,270.0
2022-02-19T09:40:03,42.805,6.029,-0.025,-0.004,-0.014,104.0,105.0,103.0,13.4,1505.2,323.5,-0.7,1.9,2470.924,13.29,0.025,260.9
2022-02-19T09:43:03,42.805,6.029,-0.007,-0.016,-0.024,105.0,104.0,102.0,13.4,1505.2,330.9,-0.8,1.8,2470.9,13.29,0.017,203.6
2022-02-19T09:46:03,42.805,6.029,-0.022,-0.008,-0.015,104.0,103.0,102.0,13.4,1505.2,328.0,-0.8,1.8,2470.913,13.29,0.023,250.0
2022-02-19T09:49:03,42.805,6.029,-0.008,-0.01,-0.009,104.0,104.0,102.0,13.4,1505.2,332.0,-0.8,1.8,2470.908,13.29,0.012,218.7
2022-02-19T09:52:03,42.805,6.029,-0.014,0.003,-0.005,104.0,105.0,104.0,13.4,1505.2,326.6,-0.7,1.8,2470.942,13.29,0.014,282.1
2022-02-19T09:55:03,42.805,6.029,-0.005,-0.006,0.004,103.0,104.0,103.0,13.4,1505.2,330.7,-0.7,1.8,2470.933,13.29,0.007,219.8